| time (UTC) | temp F | wind direction | speed MPH | gust MPH | rain 1hr in | rain 24hr in | rain mn in | humidity % | barometer mb |
| 20260510002037 | 38 | 131 | 3.0 | 7.0 | 0.00 | 0.00 | 0.00 | 100 | |
| 20260510001637 | 38 | 125 | 3.0 | 8.0 | 0.00 | 0.00 | 0.00 | 100 | |
| 20260510001237 | 38 | 116 | 3.0 | 5.0 | 0.00 | 0.00 | 0.00 | 100 | |
| 20260510000837 | 38 | 120 | 4.0 | 10.0 | 0.00 | 0.00 | 0.00 | 100 | |
| 20260510000438 | 38 | 120 | 2.0 | 5.0 | 0.00 | 0.00 | 0.00 | 100 | |
| 20260510000036 | 38 | 120 | 3.0 | 6.0 | 0.00 | 0.00 | 0.00 | 100 | |
| 20260509235636 | 38 | 115 | 4.0 | 7.0 | 0.00 | 0.00 | 0.00 | 100 | |
| 20260509235236 | 38 | 111 | 4.0 | 8.0 | 0.00 | 0.00 | 0.00 | 100 | |
| 20260509234834 | 38 | 110 | 5.0 | 8.0 | 0.00 | 0.00 | 0.00 | 100 | |
| 20260509234433 | 38 | 93 | 3.0 | 5.0 | 0.00 | 0.00 | 0.00 | 100 | |
| 20260509234031 | 38 | 91 | 3.0 | 5.0 | 0.00 | 0.00 | 0.00 | 100 | |
| 20260509233631 | 38 | 94 | 3.0 | 6.0 | 0.00 | 0.00 | 0.00 | 100 | |
| 20260509233231 | 38 | 99 | 4.0 | 7.0 | 0.00 | 0.00 | 0.00 | 100 | |
| 20260509232831 | 38 | 96 | 3.0 | 4.0 | 0.00 | 0.00 | 0.00 | 100 | |
| 20260509232432 | 38 | 97 | 3.0 | 6.0 | 0.00 | 0.00 | 0.00 | 100 | |
| 20260509232030 | 38 | 90 | 2.0 | 4.0 | 0.00 | 0.00 | 0.00 | 100 | |
| 20260509231630 | 38 | 102 | 3.0 | 5.0 | 0.00 | 0.00 | 0.00 | 100 | |
| 20260509231230 | 38 | 95 | 3.0 | 6.0 | 0.00 | 0.00 | 0.00 | 100 | |
| 20260509230830 | 38 | 93 | 4.0 | 6.0 | 0.00 | 0.00 | 0.00 | 100 | |
| 20260509230430 | 38 | 105 | 4.0 | 6.0 | 0.00 | 0.00 | 0.00 | 100 | |
| 20260509230028 | 38 | 102 | 2.0 | 4.0 | 0.00 | 0.00 | 0.00 | 100 | |
| 20260509225628 | 38 | 102 | 3.0 | 6.0 | 0.00 | 0.00 | 0.00 | 100 | |
| 20260509225228 | 38 | 109 | 2.0 | 4.0 | 0.00 | 0.00 | 0.00 | 100 | |
| 20260509224828 | 38 | 99 | 3.0 | 6.0 | 0.00 | 0.00 | 0.00 | 100 | |
| 20260509224428 | 38 | 84 | 2.0 | 5.0 | 0.00 | 0.00 | 0.00 | 100 | |
| 20260509224026 | 38 | 102 | 2.0 | 6.0 | 0.00 | 0.00 | 0.00 | 100 | |
| 20260509223626 | 38 | 97 | 2.0 | 4.0 | 0.00 | 0.00 | 0.00 | 100 | |
| 20260509223226 | 38 | 91 | 3.0 | 6.0 | 0.00 | 0.00 | 0.00 | 100 | |
| 20260509222826 | 38 | 99 | 3.0 | 5.0 | 0.00 | 0.00 | 0.00 | 100 | |
| 20260509222427 | 38 | 107 | 4.0 | 5.0 | 0.00 | 0.00 | 0.00 | 100 | |
| 20260509222025 | 38 | 82 | 2.0 | 4.0 | 0.00 | 0.00 | 0.00 | 100 | |
| 20260509221625 | 38 | 92 | 2.0 | 2.0 | 0.00 | 0.00 | 0.00 | 100 | |
| 20260509221225 | 38 | 95 | 2.0 | 3.0 | 0.00 | 0.00 | 0.00 | 100 | |
| 20260509220825 | 38 | 102 | 2.0 | 4.0 | 0.00 | 0.00 | 0.00 | 100 | |
| 20260509220425 | 38 | 91 | 2.0 | 3.0 | 0.00 | 0.00 | 0.00 | 100 | |
| 20260509220023 | 38 | 91 | 1.0 | 2.0 | 0.00 | 0.00 | 0.00 | 100 | |
| 20260509215623 | 38 | 93 | 1.0 | 1.0 | 0.00 | 0.00 | 0.00 | 100 | |
| 20260509215223 | 38 | 91 | 1.0 | 2.0 | 0.00 | 0.00 | 0.00 | 100 | |
| 20260509214814 | 38 | 91 | 2.0 | 3.0 | 0.00 | 0.00 | 0.00 | 100 | |
| 20260509214414 | 38 | 90 | 2.0 | 3.0 | 0.00 | 0.00 | 0.00 | 100 | |
| 20260509214012 | 38 | 95 | 3.0 | 5.0 | 0.00 | 0.00 | 0.00 | 100 | |
| 20260509213612 | 38 | 94 | 4.0 | 7.0 | 0.00 | 0.00 | 0.00 | 100 | |
| 20260509213212 | 38 | 101 | 3.0 | 5.0 | 0.00 | 0.00 | 0.00 | 100 | |
| 20260509212812 | 38 | 97 | 3.0 | 6.0 | 0.00 | 0.00 | 0.00 | 100 | |
| 20260509212412 | 38 | 90 | 3.0 | 7.0 | 0.00 | 0.00 | 0.00 | 100 | |
| 20260509212013 | 38 | 95 | 3.0 | 5.0 | 0.00 | 0.00 | 0.00 | 100 | |
| 20260509211610 | 38 | 70 | 3.0 | 4.0 | 0.00 | 0.00 | 0.00 | 100 | |
| 20260509211210 | 38 | 73 | 3.0 | 5.0 | 0.00 | 0.00 | 0.00 | 100 | |
| 20260509210812 | 38 | 75 | 3.0 | 5.0 | 0.00 | 0.00 | 0.00 | 100 | |
| 20260509210410 | 38 | 76 | 2.0 | 4.0 | 0.00 | 0.00 | 0.00 | 100 | |
| 20260509210008 | 38 | 71 | 2.0 | 4.0 | 0.00 | 0.00 | 0.00 | 100 | |
| 20260509205606 | 38 | 80 | 3.0 | 4.0 | 0.00 | 0.00 | 0.00 | 100 | |
| 20260509205206 | 38 | 70 | 2.0 | 4.0 | 0.00 | 0.00 | 0.00 | 100 | |
| 20260509204806 | 38 | 62 | 3.0 | 4.0 | 0.00 | 0.00 | 0.00 | 100 | |
| 20260509204407 | 38 | 76 | 4.0 | 5.0 | 0.00 | 0.00 | 0.00 | 100 | |
| 20260509204005 | 38 | 75 | 3.0 | 6.0 | 0.00 | 0.00 | 0.00 | 100 | |
| 20260509203605 | 38 | 72 | 4.0 | 6.0 | 0.00 | 0.00 | 0.00 | 100 | |
| 20260509203204 | 38 | 69 | 4.0 | 6.0 | 0.00 | 0.00 | 0.00 | 100 | |
| 20260509202804 | 38 | 63 | 2.0 | 6.0 | 0.00 | 0.00 | 0.00 | 100 | |
| 20260509202404 | 38 | 68 | 3.0 | 5.0 | 0.00 | 0.00 | 0.00 | 100 | |
| 20260509202002 | 38 | 67 | 2.0 | 6.0 | 0.00 | 0.00 | 0.00 | 100 | |
| 20260509201602 | 38 | 75 | 2.0 | 4.0 | 0.00 | 0.00 | 0.00 | 100 | |
| 20260509201202 | 39 | 75 | 2.0 | 5.0 | 0.00 | 0.00 | 0.00 | 100 | |
| 20260509200802 | 39 | 78 | 3.0 | 6.0 | 0.00 | 0.00 | 0.00 | 100 | |
| 20260509200402 | 39 | 73 | 4.0 | 7.0 | 0.00 | 0.00 | 0.00 | 100 | |
| 20260509200000 | 39 | 70 | 4.0 | 7.0 | 0.00 | 0.00 | 0.00 | 100 | |
| 20260509195600 | 39 | 82 | 4.0 | 7.0 | 0.00 | 0.00 | 0.00 | 100 | |
| 20260509195159 | 39 | 72 | 3.0 | 4.0 | 0.00 | 0.00 | 0.00 | 100 | |
| 20260509194759 | 39 | 79 | 4.0 | 7.0 | 0.00 | 0.00 | 0.00 | 100 | |
| 20260509194359 | 39 | 79 | 4.0 | 6.0 | 0.00 | 0.00 | 0.00 | 100 | |
| 20260509193957 | 39 | 79 | 3.0 | 7.0 | 0.00 | 0.00 | 0.00 | 100 | |
| 20260509193555 | 39 | 77 | 3.0 | 5.0 | 0.00 | 0.00 | 0.00 | 100 | |
| 20260509193155 | 39 | 75 | 3.0 | 5.0 | 0.00 | 0.00 | 0.00 | 100 | |
| 20260509192755 | 39 | 73 | 2.0 | 4.0 | 0.00 | 0.00 | 0.00 | 100 | |
| 20260509192355 | 39 | 67 | 2.0 | 4.0 | 0.00 | 0.00 | 0.00 | 100 | |
| 20260509191954 | 40 | 72 | 2.0 | 4.0 | 0.00 | 0.00 | 0.00 | 100 | |
| 20260509191554 | 40 | 73 | 4.0 | 8.0 | 0.00 | 0.00 | 0.00 | 100 | |
| 20260509191146 | 40 | 54 | 2.0 | 5.0 | 0.00 | 0.00 | 0.00 | 100 | |
| 20260509190746 | 40 | 65 | 1.0 | 1.0 | 0.00 | 0.00 | 0.00 | 100 | |
| 20260509190346 | 40 | 57 | 3.0 | 6.0 | 0.00 | 0.00 | 0.00 | 100 | |
| 20260509185944 | 40 | 66 | 2.0 | 4.0 | 0.00 | 0.00 | 0.00 | 100 | |
| 20260509185544 | 40 | 54 | 2.0 | 4.0 | 0.00 | 0.00 | 0.00 | 100 | |
| 20260509185144 | 40 | 57 | 3.0 | 6.0 | 0.00 | 0.00 | 0.00 | 100 | |
| 20260509184744 | 40 | 81 | 2.0 | 4.0 | 0.00 | 0.00 | 0.00 | 100 | |
| 20260509184344 | 40 | 90 | 2.0 | 4.0 | 0.00 | 0.00 | 0.00 | 100 | |
| 20260509183942 | 40 | 58 | 2.0 | 4.0 | 0.00 | 0.00 | 0.00 | 100 | |
| 20260509183541 | 40 | 67 | 2.0 | 4.0 | 0.00 | 0.00 | 0.00 | 100 | |
| 20260509183142 | 40 | 59 | 2.0 | 4.0 | 0.00 | 0.00 | 0.00 | 100 | |
| 20260509182741 | 40 | 57 | 2.0 | 6.0 | 0.00 | 0.00 | 0.00 | 100 | |
| 20260509182342 | 40 | 58 | 2.0 | 3.0 | 0.00 | 0.00 | 0.00 | 100 | |
| 20260509181943 | 41 | 57 | 2.0 | 4.0 | 0.00 | 0.00 | 0.00 | 100 | |
| 20260509181542 | 41 | 72 | 2.0 | 4.0 | 0.00 | 0.00 | 0.00 | 100 | |
| 20260509181140 | 41 | 65 | 2.0 | 5.0 | 0.00 | 0.00 | 0.00 | 100 | |
| 20260509180742 | 41 | 67 | 2.0 | 4.0 | 0.00 | 0.00 | 0.00 | 100 | |
| 20260509180341 | 41 | 79 | 2.0 | 3.0 | 0.00 | 0.00 | 0.00 | 100 | |
| 20260509175937 | 41 | 42 | 2.0 | 3.0 | 0.00 | 0.00 | 0.00 | 100 | |
| 20260509175536 | 41 | 97 | 2.0 | 3.0 | 0.00 | 0.00 | 0.00 | 100 | |
| 20260509175137 | 41 | 41 | 2.0 | 4.0 | 0.00 | 0.00 | 0.00 | 100 | |
| 20260509174738 | 41 | 48 | 3.0 | 8.0 | 0.00 | 0.00 | 0.00 | 100 | |
| 20260509174338 | 41 | 60 | 4.0 | 8.0 | 0.00 | 0.00 | 0.00 | 100 | |
| 20260509173935 | 41 | 62 | 3.0 | 6.0 | 0.00 | 0.00 | 0.00 | 100 | |
| 20260509173535 | 42 | 30 | 2.0 | 3.0 | 0.00 | 0.00 | 0.00 | 100 | |
| 20260509173134 | 42 | 45 | 3.0 | 5.0 | 0.00 | 0.00 | 0.00 | 100 | |
| 20260509172734 | 42 | 49 | 3.0 | 6.0 | 0.00 | 0.00 | 0.00 | 100 | |
| 20260509172334 | 42 | 59 | 2.0 | 4.0 | 0.00 | 0.00 | 0.00 | 100 | |
| 20260509171932 | 42 | 63 | 2.0 | 4.0 | 0.00 | 0.00 | 0.00 | 100 | |
| 20260509171532 | 42 | 48 | 1.0 | 2.0 | 0.00 | 0.00 | 0.00 | 100 | |
| 20260509171132 | 42 | 49 | 1.0 | 1.0 | 0.00 | 0.00 | 0.00 | 100 | |
| 20260509170732 | 42 | 45 | 0.0 | 1.0 | 0.00 | 0.00 | 0.00 | 100 | |
| 20260509170334 | 42 | 39 | 1.0 | 2.0 | 0.00 | 0.00 | 0.00 | 100 | |
| 20260509170332 | 42 | 39 | 1.0 | 2.0 | 0.00 | 0.00 | 0.00 | 100 | |
| 20260509165930 | 42 | 32 | 2.0 | 2.0 | 0.00 | 0.00 | 0.00 | 100 | |
| 20260509165530 | 42 | 39 | 2.0 | 3.0 | 0.00 | 0.00 | 0.00 | 100 | |
| 20260509165130 | 42 | 52 | 4.0 | 6.0 | 0.00 | 0.00 | 0.00 | 100 | |
| 20260509164730 | 42 | 80 | 2.0 | 5.0 | 0.00 | 0.00 | 0.00 | 100 | |
| 20260509164329 | 42 | 49 | 2.0 | 3.0 | 0.00 | 0.00 | 0.00 | 100 | |
| 20260509163918 | 43 | 61 | 2.0 | 4.0 | 0.00 | 0.00 | 0.00 | 100 | |
| 20260509163518 | 43 | 50 | 3.0 | 7.0 | 0.00 | 0.00 | 0.00 | 100 | |
| 20260509163119 | 43 | 50 | 3.0 | 6.0 | 0.00 | 0.00 | 0.00 | 100 | |
| 20260509162719 | 43 | 59 | 4.0 | 8.0 | 0.00 | 0.00 | 0.00 | 100 | |
| 20260509162319 | 43 | 47 | 4.0 | 6.0 | 0.00 | 0.00 | 0.00 | 100 | |
| 20260509161917 | 43 | 66 | 4.0 | 7.0 | 0.00 | 0.00 | 0.00 | 100 | |
| 20260509161517 | 43 | 49 | 3.0 | 5.0 | 0.00 | 0.00 | 0.00 | 100 | |
| 20260509161117 | 43 | 50 | 3.0 | 7.0 | 0.00 | 0.00 | 0.00 | 100 | |
| 20260509160717 | 43 | 42 | 3.0 | 4.0 | 0.00 | 0.00 | 0.00 | 100 | |
| 20260509160317 | 43 | 86 | 3.0 | 6.0 | 0.00 | 0.00 | 0.00 | 100 | |
| 20260509155915 | 43 | 57 | 3.0 | 7.0 | 0.00 | 0.00 | 0.00 | 100 | |
| 20260509155515 | 43 | 55 | 6.0 | 8.0 | 0.00 | 0.00 | 0.00 | 100 | |
| 20260509155115 | 43 | 37 | 4.0 | 18.0 | 0.00 | 0.00 | 0.00 | 100 | |
| 20260509154715 | 43 | 65 | 4.0 | 7.0 | 0.00 | 0.00 | 0.00 | 100 | |
| 20260509154315 | 43 | 19 | 5.0 | 8.0 | 0.00 | 0.00 | 0.00 | 100 | |
| 20260509153913 | 43 | 48 | 4.0 | 7.0 | 0.00 | 0.00 | 0.00 | 100 | |
| 20260509153514 | 43 | 58 | 4.0 | 9.0 | 0.00 | 0.00 | 0.00 | 100 | |
| 20260509153114 | 44 | 82 | 5.0 | 10.0 | 0.00 | 0.00 | 0.00 | 100 | |
| 20260509152711 | 44 | 25 | 2.0 | 5.0 | 0.00 | 0.00 | 0.00 | 100 | |
| 20260509152311 | 44 | 52 | 3.0 | 5.0 | 0.00 | 0.00 | 0.00 | 100 | |
| 20260509151910 | 43 | 49 | 3.0 | 7.0 | 0.00 | 0.00 | 0.00 | 100 | |
| 20260509151509 | 43 | 45 | 3.0 | 5.0 | 0.00 | 0.00 | 0.00 | 100 | |
| 20260509151109 | 44 | 51 | 4.0 | 7.0 | 0.00 | 0.00 | 0.00 | 100 | |
| 20260509150709 | 44 | 70 | 3.0 | 11.0 | 0.00 | 0.00 | 0.00 | 100 | |
| 20260509150309 | 44 | 36 | 2.0 | 4.0 | 0.00 | 0.00 | 0.00 | 100 | |
| 20260509145907 | 44 | 45 | 3.0 | 4.0 | 0.00 | 0.00 | 0.00 | 100 | |
| 20260509145507 | 44 | 55 | 3.0 | 8.0 | 0.00 | 0.00 | 0.00 | 100 | |
| 20260509145107 | 44 | 32 | 2.0 | 3.0 | 0.00 | 0.00 | 0.00 | 100 | |
| 20260509144707 | 44 | 56 | 2.0 | 6.0 | 0.00 | 0.00 | 0.00 | 100 | |
| 20260509144307 | 44 | 81 | 2.0 | 4.0 | 0.00 | 0.00 | 0.00 | 100 | |
| 20260509143905 | 44 | 46 | 3.0 | 7.0 | 0.00 | 0.00 | 0.00 | 100 | |
| 20260509143505 | 44 | 57 | 4.0 | 6.0 | 0.00 | 0.00 | 0.00 | 100 | |
| 20260509143105 | 44 | 40 | 2.0 | 5.0 | 0.00 | 0.00 | 0.00 | 100 | |
| 20260509142705 | 43 | 53 | 5.0 | 7.0 | 0.00 | 0.00 | 0.00 | 100 | |
| 20260509142307 | 44 | 49 | 6.0 | 10.0 | 0.00 | 0.00 | 0.00 | 100 | |
| 20260509141903 | 44 | 43 | 5.0 | 7.0 | 0.00 | 0.00 | 0.00 | 100 | |
| 20260509141503 | 44 | 40 | 3.0 | 6.0 | 0.00 | 0.00 | 0.00 | 100 | |
| 20260509141103 | 44 | 43 | 2.0 | 3.0 | 0.00 | 0.00 | 0.00 | 100 | |
| 20260509140704 | 44 | 56 | 3.0 | 4.0 | 0.00 | 0.00 | 0.00 | 100 | |
| 20260509140256 | 44 | 41 | 3.0 | 6.0 | 0.00 | 0.00 | 0.00 | 100 | |
| 20260509135853 | 44 | 61 | 2.0 | 4.0 | 0.00 | 0.00 | 0.00 | 100 | |
| 20260509135453 | 44 | 36 | 3.0 | 5.0 | 0.00 | 0.00 | 0.00 | 100 | |
| 20260509135053 | 45 | 35 | 2.0 | 3.0 | 0.00 | 0.00 | 0.00 | 100 | |
| 20260509134653 | 44 | 50 | 2.0 | 4.0 | 0.00 | 0.00 | 0.00 | 100 | |
| 20260509133851 | 44 | 77 | 3.0 | 6.0 | 0.00 | 0.00 | 0.00 | 100 | |
| 20260509133451 | 44 | 46 | 4.0 | 6.0 | 0.00 | 0.00 | 0.00 | 100 | |
| 20260509132653 | 44 | 41 | 4.0 | 7.0 | 0.00 | 0.00 | 0.00 | 100 | |
| 20260509132253 | 44 | 63 | 4.0 | 6.0 | 0.00 | 0.00 | 0.00 | 100 | |
| 20260509131850 | 44 | 50 | 4.0 | 7.0 | 0.00 | 0.00 | 0.00 | 100 | |
| 20260509131450 | 44 | 322 | 3.0 | 5.0 | 0.00 | 0.00 | 0.00 | 100 | |
| 20260509131050 | 44 | 29 | 4.0 | 6.0 | 0.00 | 0.00 | 0.00 | 100 | |
| 20260509130650 | 44 | 26 | 2.0 | 5.0 | 0.00 | 0.00 | 0.00 | 100 | |
| 20260509130250 | 44 | 30 | 1.0 | 4.0 | 0.00 | 0.00 | 0.00 | 100 | |
| 20260509125848 | 44 | 46 | 2.0 | 4.0 | 0.00 | 0.00 | 0.00 | 100 | |
| 20260509125448 | 44 | 123 | 1.0 | 3.0 | 0.00 | 0.00 | 0.00 | 100 | |
| 20260509125048 | 44 | 84 | 0.0 | 1.0 | 0.00 | 0.00 | 0.00 | 100 | |
| 20260509124648 | 44 | 87 | 1.0 | 3.0 | 0.00 | 0.00 | 0.00 | 100 | |
| 20260509124248 | 44 | 68 | 2.0 | 4.0 | 0.00 | 0.00 | 0.00 | 100 | |
| 20260509123846 | 44 | 86 | 3.0 | 5.0 | 0.00 | 0.00 | 0.00 | 100 | |
| 20260509123446 | 44 | 86 | 3.0 | 7.0 | 0.00 | 0.00 | 0.00 | 100 | |
| 20260509123046 | 44 | 67 | 3.0 | 5.0 | 0.00 | 0.00 | 0.00 | 100 | |
| 20260509122646 | 44 | 38 | 2.0 | 5.0 | 0.00 | 0.00 | 0.00 | 100 | |
| 20260509122246 | 44 | 79 | 2.0 | 5.0 | 0.00 | 0.00 | 0.00 | 100 | |
| 20260509121844 | 44 | 76 | 1.0 | 2.0 | 0.00 | 0.00 | 0.00 | 100 | |
| 20260509121443 | 44 | 72 | 2.0 | 4.0 | 0.00 | 0.00 | 0.00 | 100 | |
| 20260509121048 | 44 | 104 | 2.0 | 3.0 | 0.00 | 0.00 | 0.00 | 100 | |
| 20260509120643 | 43 | 100 | 3.0 | 4.0 | 0.00 | 0.00 | 0.00 | 100 | |
| 20260509120243 | 43 | 74 | 3.0 | 5.0 | 0.00 | 0.00 | 0.00 | 100 | |
| 20260509115841 | 43 | 81 | 5.0 | 9.0 | 0.00 | 0.00 | 0.00 | 100 | |
| 20260509115441 | 43 | 72 | 2.0 | 4.0 | 0.00 | 0.00 | 0.00 | 100 | |
| 20260509115041 | 43 | 71 | 4.0 | 6.0 | 0.00 | 0.00 | 0.00 | 100 | |
| 20260509114643 | 43 | 81 | 3.0 | 7.0 | 0.00 | 0.00 | 0.00 | 100 | |
| 20260509114241 | 43 | 92 | 3.0 | 5.0 | 0.00 | 0.00 | 0.00 | 100 | |
| 20260509113839 | 43 | 81 | 2.0 | 5.0 | 0.00 | 0.00 | 0.00 | 100 | |
| 20260509113439 | 43 | 59 | 2.0 | 3.0 | 0.00 | 0.00 | 0.00 | 100 | |
| 20260509113039 | 43 | 66 | 2.0 | 6.0 | 0.00 | 0.00 | 0.00 | 100 | |
| 20260509112630 | 44 | 25 | 2.0 | 2.0 | 0.00 | 0.00 | 0.00 | 100 | |
| 20260509112230 | 44 | 82 | 3.0 | 4.0 | 0.00 | 0.00 | 0.00 | 100 | |
| 20260509111828 | 44 | 63 | 2.0 | 3.0 | 0.00 | 0.00 | 0.00 | 100 | |
| 20260509111426 | 44 | 69 | 2.0 | 5.0 | 0.00 | 0.00 | 0.00 | 100 | |
| 20260509111026 | 44 | 74 | 2.0 | 4.0 | 0.00 | 0.00 | 0.00 | 100 | |
| 20260509110626 | 44 | 41 | 2.0 | 4.0 | 0.00 | 0.00 | 0.00 | 100 | |
| 20260509110226 | 44 | 37 | 1.0 | 2.0 | 0.00 | 0.00 | 0.00 | 100 | |
| 20260509105823 | 43 | 69 | 1.0 | 3.0 | 0.00 | 0.00 | 0.00 | 100 | |
| 20260509105424 | 43 | 53 | 3.0 | 5.0 | 0.00 | 0.00 | 0.00 | 100 | |
| 20260509105024 | 43 | 57 | 3.0 | 7.0 | 0.00 | 0.00 | 0.00 | 100 | |
| 20260509104624 | 43 | 48 | 4.0 | 5.0 | 0.00 | 0.00 | 0.00 | 100 | |
| 20260509104224 | 43 | 12 | 3.0 | 5.0 | 0.00 | 0.00 | 0.00 | 100 | |
| 20260509103822 | 43 | 43 | 2.0 | 6.0 | 0.00 | 0.00 | 0.00 | 100 | |
| 20260509103422 | 42 | 53 | 1.0 | 2.0 | 0.00 | 0.00 | 0.00 | 100 | |
| 20260509103022 | 42 | 73 | 3.0 | 5.0 | 0.00 | 0.00 | 0.00 | 100 | |
| 20260509102622 | 42 | 41 | 4.0 | 6.0 | 0.00 | 0.00 | 0.00 | 100 | |
| 20260509102222 | 42 | 52 | 2.0 | 6.0 | 0.00 | 0.00 | 0.00 | 100 | |
| 20260509101820 | 42 | 48 | 4.0 | 8.0 | 0.00 | 0.00 | 0.00 | 100 | |
| 20260509101420 | 42 | 359 | 4.0 | 7.0 | 0.00 | 0.00 | 0.00 | 100 | |
| 20260509101020 | 42 | 39 | 3.0 | 6.0 | 0.00 | 0.00 | 0.00 | 100 | |
| 20260509100620 | 41 | 31 | 5.0 | 8.0 | 0.00 | 0.00 | 0.00 | 100 | |
| 20260509100220 | 41 | 65 | 3.0 | 6.0 | 0.00 | 0.00 | 0.00 | 100 | |
| 20260509095818 | 41 | 24 | 4.0 | 6.0 | 0.00 | 0.00 | 0.00 | 100 | |
| 20260509095418 | 41 | 348 | 4.0 | 8.0 | 0.00 | 0.00 | 0.00 | 100 | |
| 20260509095018 | 41 | 12 | 4.0 | 6.0 | 0.00 | 0.00 | 0.00 | 100 | |
| 20260509094618 | 41 | 9 | 4.0 | 6.0 | 0.00 | 0.00 | 0.00 | 100 | |
| 20260509094218 | 41 | 26 | 5.0 | 7.0 | 0.00 | 0.00 | 0.00 | 100 | |
| 20260509093816 | 41 | 16 | 6.0 | 8.0 | 0.00 | 0.00 | 0.00 | 100 | |
| 20260509093416 | 41 | 29 | 5.0 | 7.0 | 0.00 | 0.00 | 0.00 | 100 | |
| 20260509093016 | 41 | 17 | 5.0 | 6.0 | 0.00 | 0.00 | 0.00 | 100 | |
| 20260509092616 | 41 | 30 | 3.0 | 7.0 | 0.00 | 0.00 | 0.00 | 100 | |
| 20260509092216 | 41 | 340 | 5.0 | 8.0 | 0.00 | 0.00 | 0.00 | 100 | |
| 20260509091814 | 41 | 35 | 3.0 | 6.0 | 0.00 | 0.00 | 0.00 | 100 | |
| 20260509091413 | 42 | 14 | 5.0 | 8.0 | 0.00 | 0.00 | 0.00 | 100 | |
| 20260509091014 | 42 | 347 | 4.0 | 8.0 | 0.00 | 0.00 | 0.00 | 100 | |
| 20260509090613 | 42 | 22 | 4.0 | 7.0 | 0.00 | 0.00 | 0.00 | 100 | |
| 20260509090214 | 42 | 27 | 4.0 | 5.0 | 0.00 | 0.00 | 0.00 | 100 | |
| 20260509085812 | 42 | 29 | 4.0 | 6.0 | 0.00 | 0.00 | 0.00 | 100 | |
| 20260509085412 | 42 | 26 | 2.0 | 2.0 | 0.00 | 0.00 | 0.00 | 100 | |
| 20260509085004 | 42 | 358 | 2.0 | 5.0 | 0.00 | 0.00 | 0.00 | 100 | |
| 20260509084605 | 42 | 14 | 3.0 | 6.0 | 0.00 | 0.00 | 0.00 | 100 | |
| 20260509084205 | 42 | 234 | 2.0 | 5.0 | 0.00 | 0.00 | 0.00 | 100 | |
| 20260509083803 | 42 | 8 | 6.0 | 9.0 | 0.00 | 0.00 | 0.00 | 100 | |
| 20260509083403 | 41 | 11 | 4.0 | 5.0 | 0.00 | 0.00 | 0.00 | 100 | |
| 20260509083002 | 41 | 323 | 2.0 | 4.0 | 0.00 | 0.00 | 0.00 | 100 | |
| 20260509082602 | 41 | 8 | 4.0 | 5.0 | 0.00 | 0.00 | 0.00 | 100 | |
| 20260509082202 | 41 | 19 | 5.0 | 7.0 | 0.00 | 0.00 | 0.00 | 100 | |
| 20260509081800 | 41 | 24 | 2.0 | 3.0 | 0.00 | 0.00 | 0.00 | 100 | |
| 20260509081400 | 41 | 16 | 4.0 | 7.0 | 0.00 | 0.00 | 0.00 | 100 | |
| 20260509081000 | 41 | 4 | 3.0 | 5.0 | 0.00 | 0.00 | 0.00 | 100 | |
| 20260509080600 | 41 | 31 | 2.0 | 3.0 | 0.00 | 0.00 | 0.00 | 100 | |
| 20260509080200 | 41 | 328 | 3.0 | 6.0 | 0.00 | 0.00 | 0.00 | 100 | |
| 20260509075758 | 41 | 5 | 1.0 | 4.0 | 0.00 | 0.00 | 0.00 | 100 | |
| 20260509075358 | 41 | 67 | 3.0 | 6.0 | 0.00 | 0.00 | 0.00 | 100 | |
| 20260509074958 | 41 | 28 | 3.0 | 8.0 | 0.00 | 0.00 | 0.00 | 100 | |
| 20260509074558 | 41 | 28 | 3.0 | 7.0 | 0.00 | 0.00 | 0.00 | 100 | |
| 20260509074158 | 41 | 20 | 3.0 | 7.0 | 0.00 | 0.00 | 0.00 | 100 | |
| 20260509073756 | 41 | 10 | 3.0 | 4.0 | 0.00 | 0.00 | 0.00 | 100 | |
| 20260509073356 | 41 | 18 | 4.0 | 6.0 | 0.00 | 0.00 | 0.00 | 100 | |
| 20260509072956 | 41 | 7 | 2.0 | 6.0 | 0.00 | 0.00 | 0.00 | 100 | |
| 20260509072556 | 41 | 53 | 2.0 | 4.0 | 0.00 | 0.00 | 0.00 | 100 | |
| 20260509072156 | 40 | 46 | 2.0 | 5.0 | 0.00 | 0.00 | 0.00 | 100 | |
| 20260509071754 | 40 | 42 | 2.0 | 3.0 | 0.00 | 0.00 | 0.00 | 100 | |
| 20260509071354 | 40 | 21 | 3.0 | 6.0 | 0.00 | 0.00 | 0.00 | 100 | |
| 20260509070955 | 40 | 315 | 2.0 | 4.0 | 0.00 | 0.00 | 0.00 | 100 | |
| 20260509070552 | 40 | 27 | 2.0 | 4.0 | 0.00 | 0.00 | 0.00 | 100 | |
| 20260509070154 | 40 | 60 | 1.0 | 3.0 | 0.00 | 0.00 | 0.00 | 100 | |
| 20260509065751 | 40 | 48 | 3.0 | 5.0 | 0.00 | 0.00 | 0.00 | 100 | |
| 20260509065351 | 40 | 27 | 2.0 | 4.0 | 0.00 | 0.00 | 0.00 | 100 | |
| 20260509064951 | 40 | 56 | 4.0 | 6.0 | 0.00 | 0.00 | 0.00 | 100 | |
| 20260509064550 | 40 | 69 | 2.0 | 4.0 | 0.00 | 0.00 | 0.00 | 100 | |
| 20260509064150 | 39 | 47 | 3.0 | 7.0 | 0.00 | 0.00 | 0.00 | 100 | |
| 20260509063748 | 39 | 63 | 3.0 | 4.0 | 0.00 | 0.00 | 0.00 | 100 | |
| 20260509063348 | 39 | 61 | 2.0 | 5.0 | 0.00 | 0.00 | 0.00 | 100 | |
| 20260509062948 | 39 | 38 | 2.0 | 5.0 | 0.00 | 0.00 | 0.00 | 100 | |
| 20260509062548 | 39 | 50 | 4.0 | 6.0 | 0.00 | 0.00 | 0.00 | 100 | |
| 20260509062149 | 39 | 68 | 4.0 | 7.0 | 0.00 | 0.00 | 0.00 | 100 | |
| 20260509061737 | 39 | 64 | 4.0 | 6.0 | 0.00 | 0.00 | 0.00 | 100 | |
| 20260509061337 | 39 | 51 | 4.0 | 6.0 | 0.00 | 0.00 | 0.00 | 100 | |
| 20260509060937 | 39 | 62 | 2.0 | 4.0 | 0.00 | 0.00 | 0.00 | 100 | |
| 20260509060537 | 38 | 45 | 4.0 | 6.0 | 0.00 | 0.00 | 0.00 | 100 | |
| 20260509060137 | 38 | 55 | 4.0 | 6.0 | 0.00 | 0.00 | 0.00 | 100 | |
| 20260509055735 | 38 | 44 | 4.0 | 6.0 | 0.00 | 0.00 | 0.00 | 100 | |
| 20260509055334 | 38 | 34 | 4.0 | 6.0 | 0.00 | 0.00 | 0.00 | 100 | |
| 20260509054934 | 39 | 36 | 4.0 | 6.0 | 0.00 | 0.00 | 0.00 | 100 | |
| 20260509054534 | 39 | 53 | 3.0 | 4.0 | 0.00 | 0.00 | 0.00 | 100 | |
| 20260509054134 | 39 | 52 | 3.0 | 6.0 | 0.00 | 0.00 | 0.00 | 100 | |
| 20260509053733 | 38 | 45 | 5.0 | 9.0 | 0.00 | 0.00 | 0.00 | 100 | |
| 20260509053332 | 38 | 64 | 3.0 | 6.0 | 0.00 | 0.00 | 0.00 | 100 | |
| 20260509052932 | 38 | 53 | 4.0 | 7.0 | 0.00 | 0.00 | 0.00 | 100 | |
| 20260509052532 | 38 | 51 | 3.0 | 6.0 | 0.00 | 0.00 | 0.00 | 100 | |
| 20260509051730 | 38 | 45 | 3.0 | 6.0 | 0.00 | 0.00 | 0.00 | 100 | |
| 20260509051330 | 38 | 50 | 5.0 | 23.0 | 0.00 | 0.00 | 0.00 | 100 | |
| 20260509050930 | 38 | 40 | 3.0 | 6.0 | 0.00 | 0.00 | 0.00 | 100 | |
| 20260509050530 | 38 | 54 | 3.0 | 4.0 | 0.00 | 0.00 | 0.00 | 100 | |
| 20260509050130 | 38 | 45 | 4.0 | 5.0 | 0.00 | 0.00 | 0.00 | 100 | |
| 20260509045728 | 38 | 56 | 2.0 | 6.0 | 0.00 | 0.00 | 0.00 | 100 | |
| 20260509045328 | 38 | 55 | 3.0 | 7.0 | 0.00 | 0.00 | 0.00 | 100 | |
| 20260509044927 | 38 | 66 | 3.0 | 6.0 | 0.00 | 0.00 | 0.00 | 100 | |
| 20260509044527 | 38 | 59 | 3.0 | 6.0 | 0.00 | 0.00 | 0.00 | 100 | |
| 20260509044127 | 38 | 65 | 2.0 | 3.0 | 0.00 | 0.00 | 0.00 | 100 | |
| 20260509043725 | 38 | 72 | 3.0 | 6.0 | 0.00 | 0.00 | 0.00 | 100 | |
| 20260509043325 | 38 | 61 | 2.0 | 6.0 | 0.00 | 0.00 | 0.00 | 100 | |
| 20260509042925 | 38 | 79 | 3.0 | 5.0 | 0.00 | 0.00 | 0.00 | 100 | |
| 20260509042525 | 38 | 59 | 4.0 | 6.0 | 0.00 | 0.00 | 0.00 | 100 | |
| 20260509042125 | 38 | 53 | 3.0 | 6.0 | 0.00 | 0.00 | 0.00 | 100 | |
| 20260509041723 | 38 | 60 | 3.0 | 5.0 | 0.00 | 0.00 | 0.00 | 100 | |
| 20260509041324 | 38 | 60 | 3.0 | 7.0 | 0.00 | 0.00 | 0.00 | 100 | |
| 20260509040923 | 38 | 67 | 4.0 | 6.0 | 0.00 | 0.00 | 0.00 | 100 | |
| 20260509040523 | 38 | 53 | 3.0 | 4.0 | 0.00 | 0.00 | 0.00 | 100 | |
| 20260509040123 | 38 | 62 | 3.0 | 5.0 | 0.00 | 0.00 | 0.00 | 100 | |
| 20260509035721 | 38 | 62 | 2.0 | 4.0 | 0.00 | 0.00 | 0.00 | 100 | |
| 20260509035321 | 38 | 49 | 2.0 | 4.0 | 0.00 | 0.00 | 0.00 | 100 | |
| 20260509034921 | 38 | 65 | 2.0 | 4.0 | 0.00 | 0.00 | 0.00 | 100 | |
| 20260509034521 | 38 | 56 | 3.0 | 4.0 | 0.00 | 0.00 | 0.00 | 100 | |
| 20260509034114 | 38 | 58 | 2.0 | 4.0 | 0.00 | 0.00 | 0.00 | 100 | |
| 20260509033712 | 38 | 65 | 2.0 | 4.0 | 0.00 | 0.00 | 0.00 | 100 | |
| 20260509033312 | 38 | 71 | 2.0 | 4.0 | 0.00 | 0.00 | 0.00 | 100 | |
| 20260509032912 | 38 | 65 | 3.0 | 5.0 | 0.00 | 0.00 | 0.00 | 100 | |
| 20260509032512 | 38 | 67 | 3.0 | 5.0 | 0.00 | 0.00 | 0.00 | 100 | |
| 20260509032112 | 38 | 62 | 2.0 | 5.0 | 0.00 | 0.00 | 0.00 | 100 | |
| 20260509031710 | 37 | 65 | 5.0 | 6.0 | 0.00 | 0.00 | 0.00 | 100 | |
| 20260509031310 | 37 | 64 | 2.0 | 4.0 | 0.00 | 0.00 | 0.00 | 100 | |
| 20260509030910 | 37 | 75 | 4.0 | 6.0 | 0.00 | 0.00 | 0.00 | 100 | |
| 20260509030510 | 37 | 66 | 3.0 | 5.0 | 0.00 | 0.00 | 0.00 | 100 | |
| 20260509030110 | 37 | 78 | 4.0 | 6.0 | 0.00 | 0.00 | 0.00 | 100 | |
| 20260509025709 | 37 | 82 | 4.0 | 6.0 | 0.00 | 0.00 | 0.00 | 100 | |
| 20260509025307 | 37 | 80 | 4.0 | 6.0 | 0.00 | 0.00 | 0.00 | 100 | |
| 20260509024906 | 37 | 87 | 4.0 | 6.0 | 0.00 | 0.00 | 0.00 | 100 | |
| 20260509024507 | 38 | 77 | 4.0 | 7.0 | 0.00 | 0.00 | 0.00 | 100 | |
| 20260509024106 | 38 | 75 | 4.0 | 6.0 | 0.00 | 0.00 | 0.00 | 100 | |
| 20260509023704 | 38 | 85 | 4.0 | 7.0 | 0.00 | 0.00 | 0.00 | 100 | |
| 20260509023304 | 38 | 84 | 5.0 | 7.0 | 0.00 | 0.00 | 0.00 | 100 | |
| 20260509022904 | 38 | 82 | 5.0 | 7.0 | 0.00 | 0.00 | 0.00 | 100 | |
| 20260509022504 | 38 | 77 | 5.0 | 8.0 | 0.00 | 0.00 | 0.00 | 100 | |
| 20260509022104 | 38 | 79 | 5.0 | 6.0 | 0.00 | 0.00 | 0.00 | 100 | |
| 20260509021702 | 38 | 81 | 4.0 | 6.0 | 0.00 | 0.00 | 0.00 | 100 | |
| 20260509021302 | 38 | 79 | 4.0 | 6.0 | 0.00 | 0.00 | 0.00 | 100 | |
| 20260509020902 | 38 | 77 | 4.0 | 7.0 | 0.00 | 0.00 | 0.00 | 100 | |
| 20260509020502 | 38 | 77 | 5.0 | 9.0 | 0.00 | 0.00 | 0.00 | 100 | |
| 20260509015700 | 38 | 80 | 6.0 | 8.0 | 0.00 | 0.00 | 0.00 | 100 | |
| 20260509015301 | 38 | 72 | 2.0 | 5.0 | 0.00 | 0.00 | 0.00 | 100 | |
| 20260509014901 | 38 | 69 | 3.0 | 4.0 | 0.00 | 0.00 | 0.00 | 100 | |
| 20260509014501 | 39 | 65 | 3.0 | 5.0 | 0.00 | 0.00 | 0.00 | 100 | |
| 20260509014101 | 39 | 70 | 3.0 | 5.0 | 0.00 | 0.00 | 0.00 | 100 | |
| 20260509013659 | 39 | 61 | 2.0 | 4.0 | 0.00 | 0.00 | 0.00 | 100 | |
| 20260509013259 | 39 | 65 | 2.0 | 5.0 | 0.00 | 0.00 | 0.00 | 100 | |
| 20260509012859 | 39 | 73 | 2.0 | 5.0 | 0.00 | 0.00 | 0.00 | 100 | |
| 20260509012459 | 40 | 70 | 2.0 | 3.0 | 0.00 | 0.00 | 0.00 | 100 | |
| 20260509012059 | 40 | 76 | 2.0 | 4.0 | 0.00 | 0.00 | 0.00 | 100 | |
| 20260509011657 | 40 | 68 | 1.0 | 4.0 | 0.00 | 0.00 | 0.00 | 100 | |
| 20260509011257 | 40 | 69 | 1.0 | 3.0 | 0.00 | 0.00 | 0.00 | 100 | |
| 20260509010857 | 40 | 65 | 2.0 | 3.0 | 0.00 | 0.00 | 0.00 | 100 | |
| 20260509010448 | 40 | 68 | 1.0 | 2.0 | 0.00 | 0.00 | 0.00 | 100 | |
| 20260509010048 | 40 | 68 | 2.0 | 3.0 | 0.00 | 0.00 | 0.00 | 100 | |
| 20260509005646 | 40 | 63 | 2.0 | 4.0 | 0.00 | 0.00 | 0.00 | 100 | |
| 20260509005246 | 40 | 56 | 1.0 | 2.0 | 0.00 | 0.00 | 0.00 | 100 | |
| 20260509004846 | 40 | 65 | 1.0 | 3.0 | 0.00 | 0.00 | 0.00 | 100 | |
| 20260509004447 | 40 | 60 | 1.0 | 2.0 | 0.00 | 0.00 | 0.00 | 100 | |
| 20260509004047 | 40 | 68 | 2.0 | 4.0 | 0.00 | 0.00 | 0.00 | 100 | |
| 20260509003645 | 40 | 55 | 1.0 | 2.0 | 0.00 | 0.00 | 0.00 | 100 | |
| 20260509003245 | 40 | 53 | 1.0 | 3.0 | 0.00 | 0.00 | 0.00 | 100 | |
| 20260509002845 | 40 | 51 | 0.0 | 1.0 | 0.00 | 0.00 | 0.00 | 100 | |
| 20260509002445 | 40 | 80 | 2.0 | 4.0 | 0.00 | 0.00 | 0.00 | 100 |